| time (UTC) | temp F | wind direction | speed knots | gust knots | rain 1hr in | rain 24hr in | rain mn in | humidity % | barometer mb |
| 20260505122138 | 60 | 215 | 1.7 | 2.6 | 0.00 | 0.00 | 0.00 | 77 | 1006.5 |
| 20260505121634 | 60 | 4 | 0.0 | 1.7 | 0.00 | 0.00 | 0.00 | 77 | 1006.1 |
| 20260505121131 | 60 | 326 | 0.9 | 1.7 | 0.00 | 0.00 | 0.00 | 77 | 1006.3 |
| 20260505120627 | 60 | 114 | 0.9 | 5.2 | 0.00 | 0.00 | 0.00 | 77 | 1006.0 |
| 20260505120123 | 61 | 273 | 0.9 | 2.6 | 0.00 | 0.00 | 0.00 | 76 | 1006.4 |
| 20260505115618 | 61 | 289 | 2.6 | 5.2 | 0.00 | 0.00 | 0.00 | 75 | 1006.0 |
| 20260505115115 | 61 | 249 | 1.7 | 2.6 | 0.00 | 0.00 | 0.00 | 75 | 1006.0 |
| 20260505114612 | 61 | 3 | 0.9 | 1.7 | 0.00 | 0.00 | 0.00 | 74 | 1006.3 |
| 20260505114109 | 61 | 282 | 1.7 | 5.2 | 0.00 | 0.00 | 0.00 | 74 | 1006.3 |
| 20260505113605 | 61 | 330 | 0.9 | 1.7 | 0.00 | 0.00 | 0.00 | 74 | 1006.3 |
| 20260505113102 | 61 | 317 | 0.9 | 2.6 | 0.00 | 0.00 | 0.00 | 73 | 1006.3 |
| 20260505112558 | 61 | 273 | 1.7 | 2.6 | 0.00 | 0.00 | 0.00 | 73 | 1006.0 |
| 20260505112056 | 61 | 352 | 0.9 | 1.7 | 0.00 | 0.00 | 0.00 | 73 | 1006.4 |
| 20260505111550 | 61 | 354 | 2.6 | 4.3 | 0.00 | 0.00 | 0.00 | 72 | 1006.1 |
| 20260505111046 | 62 | 265 | 0.9 | 2.6 | 0.00 | 0.00 | 0.00 | 72 | 1006.0 |
| 20260505110543 | 62 | 352 | 1.7 | 4.3 | 0.00 | 0.00 | 0.00 | 71 | 1005.9 |
| 20260505102015 | 62 | 305 | 0.9 | 6.1 | 0.00 | 0.00 | 0.00 | 69 | 1006.3 |
| 20260505101514 | 62 | 2 | 0.0 | 2.6 | 0.00 | 0.00 | 0.00 | 68 | 1006.0 |
| 20260505101010 | 63 | 236 | 3.5 | 5.2 | 0.00 | 0.00 | 0.00 | 68 | 1006.4 |
| 20260505100507 | 62 | 77 | 3.5 | 4.3 | 0.00 | 0.00 | 0.00 | 68 | 1006.4 |
| 20260505100004 | 63 | 25 | 0.9 | 2.6 | 0.00 | 0.00 | 0.00 | 67 | 1006.1 |
| 20260505095459 | 63 | 302 | 0.9 | 1.7 | 0.00 | 0.00 | 0.00 | 67 | 1006.1 |
| 20260505094956 | 63 | 314 | 0.9 | 1.7 | 0.00 | 0.00 | 0.00 | 66 | 1006.0 |
| 20260505094453 | 63 | 244 | 0.9 | 5.2 | 0.00 | 0.00 | 0.00 | 66 | 1006.0 |
| 20260505093949 | 63 | 313 | 2.6 | 5.2 | 0.00 | 0.00 | 0.00 | 65 | 1005.9 |
| 20260505093446 | 63 | 212 | 4.3 | 7.0 | 0.00 | 0.00 | 0.00 | 65 | 1005.9 |
| 20260505092943 | 64 | 315 | 2.6 | 4.3 | 0.00 | 0.00 | 0.00 | 65 | 1005.7 |
| 20260505092440 | 64 | 143 | 3.5 | 5.2 | 0.00 | 0.00 | 0.00 | 64 | 1005.9 |
| 20260505091938 | 64 | 301 | 1.7 | 2.6 | 0.00 | 0.00 | 0.00 | 64 | 1005.6 |
| 20260505091435 | 64 | 337 | 1.7 | 7.0 | 0.00 | 0.00 | 0.00 | 64 | 1005.6 |
| 20260505090933 | 64 | 132 | 2.6 | 6.1 | 0.00 | 0.00 | 0.00 | 63 | 1005.6 |
| 20260505090431 | 64 | 343 | 1.7 | 4.3 | 0.00 | 0.00 | 0.00 | 63 | 1005.7 |
| 20260505085928 | 65 | 301 | 2.6 | 7.0 | 0.00 | 0.00 | 0.00 | 62 | 1005.7 |
| 20260505085426 | 65 | 322 | 2.6 | 9.6 | 0.00 | 0.00 | 0.00 | 62 | 1005.4 |
| 20260505084924 | 65 | 78 | 2.6 | 5.2 | 0.00 | 0.00 | 0.00 | 62 | 1005.3 |
| 20260505084422 | 66 | 288 | 6.1 | 7.8 | 0.00 | 0.00 | 0.00 | 61 | 1005.4 |
| 20260505083920 | 66 | 201 | 2.6 | 7.0 | 0.00 | 0.00 | 0.00 | 61 | 1005.1 |
| 20260505083417 | 66 | 269 | 4.3 | 7.8 | 0.00 | 0.00 | 0.00 | 60 | 1005.2 |
| 20260505082913 | 66 | 260 | 4.3 | 7.8 | 0.00 | 0.00 | 0.00 | 61 | 1005.0 |
| 20260505082409 | 66 | 287 | 2.6 | 7.8 | 0.00 | 0.00 | 0.00 | 60 | 1005.0 |
| 20260505081906 | 66 | 210 | 5.2 | 6.1 | 0.00 | 0.00 | 0.00 | 60 | 1004.9 |
| 20260505081403 | 66 | 238 | 5.2 | 13.0 | 0.00 | 0.00 | 0.00 | 60 | 1004.7 |
| 20260505080859 | 66 | 323 | 0.9 | 8.7 | 0.00 | 0.00 | 0.00 | 61 | 1004.7 |
| 20260505080355 | 66 | 236 | 1.7 | 7.8 | 0.00 | 0.00 | 0.00 | 61 | 1004.7 |
| 20260505075851 | 66 | 109 | 3.5 | 7.0 | 0.00 | 0.00 | 0.00 | 60 | 1004.8 |
| 20260505075348 | 67 | 15 | 2.6 | 7.8 | 0.00 | 0.00 | 0.00 | 59 | 1004.9 |
| 20260505074845 | 67 | 118 | 3.5 | 9.6 | 0.00 | 0.00 | 0.00 | 59 | 1004.9 |
| 20260505074342 | 67 | 202 | 6.1 | 9.6 | 0.00 | 0.00 | 0.00 | 59 | 1004.7 |
| 20260505073840 | 66 | 156 | 7.8 | 14.8 | 0.00 | 0.00 | 0.00 | 59 | 1004.6 |
| 20260505073338 | 67 | 257 | 2.6 | 7.8 | 0.00 | 0.00 | 0.00 | 59 | 1004.5 |
| 20260505072834 | 67 | 229 | 6.1 | 9.6 | 0.00 | 0.00 | 0.00 | 59 | 1004.6 |
| 20260505072330 | 67 | 197 | 6.1 | 7.8 | 0.00 | 0.00 | 0.00 | 58 | 1004.6 |
| 20260505071826 | 67 | 161 | 3.5 | 9.6 | 0.00 | 0.00 | 0.00 | 58 | 1004.6 |
| 20260505071323 | 67 | 198 | 2.6 | 7.0 | 0.00 | 0.00 | 0.00 | 58 | 1004.5 |
| 20260505070821 | 67 | 266 | 1.7 | 7.0 | 0.00 | 0.00 | 0.00 | 58 | 1004.5 |
| 20260505070318 | 67 | 303 | 1.7 | 6.1 | 0.00 | 0.00 | 0.00 | 59 | 1004.4 |
| 20260505065813 | 67 | 353 | 2.6 | 6.1 | 0.00 | 0.00 | 0.00 | 58 | 1004.4 |
| 20260505065310 | 67 | 258 | 3.5 | 7.8 | 0.00 | 0.00 | 0.00 | 58 | 1004.5 |
| 20260505064807 | 67 | 203 | 3.5 | 4.3 | 0.00 | 0.00 | 0.00 | 60 | 1004.4 |
| 20260505064304 | 67 | 236 | 1.7 | 8.7 | 0.00 | 0.00 | 0.00 | 59 | 1004.3 |
| 20260505063802 | 66 | 195 | 2.6 | 4.3 | 0.00 | 0.00 | 0.00 | 61 | 1004.5 |
| 20260505063258 | 67 | 165 | 0.9 | 7.8 | 0.00 | 0.00 | 0.00 | 60 | 1004.4 |
| 20260505062754 | 66 | 186 | 4.3 | 8.7 | 0.00 | 0.00 | 0.00 | 60 | 1004.4 |
| 20260505062252 | 67 | 55 | 1.7 | 5.2 | 0.00 | 0.00 | 0.00 | 60 | 1004.4 |
| 20260505061749 | 66 | 311 | 2.6 | 8.7 | 0.00 | 0.00 | 0.00 | 60 | 1004.4 |
| 20260505061247 | 66 | 167 | 1.7 | 5.2 | 0.00 | 0.00 | 0.00 | 61 | 1004.6 |
| 20260505060744 | 67 | 166 | 4.3 | 7.8 | 0.00 | 0.00 | 0.00 | 61 | 1004.5 |
| 20260505060241 | 67 | 250 | 2.6 | 7.0 | 0.00 | 0.00 | 0.00 | 60 | 1004.7 |
| 20260505055736 | 67 | 152 | 2.6 | 4.3 | 0.00 | 0.00 | 0.00 | 61 | 1004.7 |
| 20260505055233 | 67 | 217 | 3.5 | 6.1 | 0.00 | 0.00 | 0.00 | 60 | 1004.7 |
| 20260505054730 | 67 | 151 | 2.6 | 6.1 | 0.00 | 0.00 | 0.00 | 60 | 1004.7 |
| 20260505054228 | 67 | 231 | 2.6 | 7.0 | 0.00 | 0.00 | 0.00 | 61 | 1004.8 |
| 20260505053726 | 67 | 256 | 3.5 | 9.6 | 0.00 | 0.00 | 0.00 | 61 | 1005.0 |
| 20260505053222 | 67 | 230 | 6.1 | 7.8 | 0.00 | 0.00 | 0.00 | 62 | 1004.7 |
| 20260505052719 | 66 | 208 | 0.9 | 5.2 | 0.00 | 0.00 | 0.00 | 62 | 1005.0 |
| 20260505052216 | 67 | 218 | 2.6 | 6.1 | 0.00 | 0.00 | 0.00 | 62 | 1005.0 |
| 20260505051713 | 67 | 236 | 4.3 | 7.0 | 0.00 | 0.00 | 0.00 | 61 | 1005.0 |
| 20260505051211 | 67 | 256 | 2.6 | 6.1 | 0.00 | 0.00 | 0.00 | 61 | 1005.2 |
| 20260505050709 | 67 | 183 | 3.5 | 7.8 | 0.00 | 0.00 | 0.00 | 61 | 1005.1 |
| 20260505050207 | 67 | 188 | 1.7 | 6.1 | 0.00 | 0.00 | 0.00 | 61 | 1005.0 |
| 20260505041637 | 67 | 338 | 0.9 | 2.6 | 0.00 | 0.00 | 0.00 | 63 | 1005.1 |
| 20260505041134 | 67 | 228 | 1.7 | 5.2 | 0.00 | 0.00 | 0.00 | 62 | 1005.3 |
| 20260505040631 | 67 | 189 | 3.5 | 5.2 | 0.00 | 0.00 | 0.00 | 62 | 1005.1 |
| 20260505040128 | 67 | 181 | 2.6 | 4.3 | 0.00 | 0.00 | 0.00 | 63 | 1004.9 |
| 20260505035624 | 66 | 330 | 1.7 | 5.2 | 0.00 | 0.00 | 0.00 | 63 | 1005.1 |
| 20260505035120 | 66 | 250 | 0.9 | 4.3 | 0.00 | 0.00 | 0.00 | 65 | 1005.2 |
| 20260505034617 | 65 | 146 | 1.7 | 4.3 | 0.00 | 0.00 | 0.00 | 66 | 1005.1 |
| 20260505034114 | 65 | 198 | 2.6 | 2.6 | 0.00 | 0.00 | 0.00 | 66 | 1005.0 |
| 20260505033611 | 65 | 359 | 0.0 | 2.6 | 0.00 | 0.00 | 0.00 | 67 | 1005.2 |
| 20260505033110 | 65 | 9 | 0.9 | 4.3 | 0.00 | 0.00 | 0.00 | 67 | 1005.1 |
| 20260505032607 | 64 | 171 | 1.7 | 1.7 | 0.00 | 0.00 | 0.00 | 68 | 1005.2 |
| 20260505032103 | 64 | 342 | 0.9 | 4.3 | 0.00 | 0.00 | 0.00 | 69 | 1005.1 |
| 20260505031601 | 64 | 326 | 0.0 | 1.7 | 0.00 | 0.00 | 0.00 | 70 | 1004.9 |
| 20260505031057 | 64 | 16 | 0.0 | 2.6 | 0.00 | 0.00 | 0.00 | 69 | 1005.1 |
| 20260505030554 | 64 | 273 | 0.9 | 1.7 | 0.00 | 0.00 | 0.00 | 69 | 1005.1 |
| 20260505030050 | 64 | 30 | 0.9 | 1.7 | 0.00 | 0.00 | 0.00 | 70 | 1005.1 |
| 20260505025545 | 64 | 355 | 0.0 | 1.7 | 0.00 | 0.00 | 0.00 | 70 | 1005.0 |
| 20260505025045 | 64 | 345 | 0.9 | 2.6 | 0.00 | 0.00 | 0.00 | 70 | 1004.9 |
| 20260505024541 | 64 | 152 | 0.9 | 4.3 | 0.00 | 0.00 | 0.00 | 70 | 1005.0 |
| 20260505024038 | 64 | 177 | 2.6 | 2.6 | 0.00 | 0.00 | 0.00 | 70 | 1005.0 |
| 20260505023535 | 64 | 13 | 0.9 | 1.7 | 0.00 | 0.00 | 0.00 | 71 | 1004.9 |
| 20260505023033 | 64 | 99 | 0.0 | 2.6 | 0.00 | 0.00 | 0.00 | 72 | 1005.0 |
| 20260505022530 | 64 | 0 | 0.9 | 0.9 | 0.00 | 0.00 | 0.00 | 72 | 1005.0 |
| 20260505022028 | 64 | 349 | 0.9 | 1.7 | 0.00 | 0.00 | 0.00 | 72 | 1005.0 |
| 20260505021524 | 63 | 24 | 0.0 | 1.7 | 0.00 | 0.00 | 0.00 | 73 | 1005.0 |
| 20260505021021 | 63 | 80 | 0.0 | 0.9 | 0.00 | 0.00 | 0.00 | 73 | 1004.8 |
| 20260505020520 | 63 | 2 | 0.0 | 0.0 | 0.00 | 0.00 | 0.00 | 72 | 1004.9 |
| 20260505020018 | 63 | 351 | 0.0 | 1.7 | 0.00 | 0.00 | 0.00 | 72 | 1004.9 |
| 20260505015515 | 64 | 356 | 0.0 | 0.9 | 0.00 | 0.00 | 0.00 | 72 | 1005.2 |
| 20260505015012 | 64 | 205 | 0.0 | 1.7 | 0.00 | 0.00 | 0.00 | 71 | 1005.1 |
| 20260505014509 | 64 | 333 | 0.9 | 0.9 | 0.00 | 0.00 | 0.00 | 71 | 1005.0 |
| 20260505014006 | 64 | 16 | 0.9 | 1.7 | 0.00 | 0.00 | 0.00 | 71 | 1004.8 |
| 20260505013503 | 64 | 336 | 0.0 | 2.6 | 0.00 | 0.00 | 0.00 | 72 | 1004.6 |
| 20260505013000 | 64 | 356 | 0.0 | 0.9 | 0.00 | 0.00 | 0.00 | 71 | 1004.6 |
| 20260505012458 | 64 | 0 | 0.0 | 1.7 | 0.00 | 0.00 | 0.00 | 71 | 1004.5 |
| 20260505011955 | 64 | 5 | 0.0 | 1.7 | 0.00 | 0.00 | 0.00 | 71 | 1004.5 |
| 20260505011451 | 64 | 74 | 0.9 | 1.7 | 0.00 | 0.00 | 0.00 | 71 | 1004.6 |
| 20260505010948 | 64 | 358 | 0.0 | 0.0 | 0.00 | 0.00 | 0.00 | 71 | 1004.6 |
| 20260505010443 | 64 | 357 | 0.0 | 0.0 | 0.00 | 0.00 | 0.00 | 70 | 1004.6 |
| 20260505005939 | 64 | 357 | 0.0 | 0.9 | 0.00 | 0.00 | 0.00 | 70 | 1004.5 |
| 20260505005436 | 65 | 357 | 0.0 | 0.9 | 0.00 | 0.00 | 0.00 | 69 | 1004.6 |
| 20260505004934 | 65 | 2 | 0.0 | 0.9 | 0.00 | 0.00 | 0.00 | 69 | 1004.7 |
| 20260505004430 | 65 | 1 | 0.0 | 0.0 | 0.00 | 0.00 | 0.00 | 68 | 1004.5 |
| 20260505003928 | 66 | 358 | 0.0 | 0.0 | 0.00 | 0.00 | 0.00 | 67 | 1004.5 |
| 20260505003425 | 66 | 21 | 0.9 | 1.7 | 0.00 | 0.00 | 0.00 | 67 | 1004.3 |
| 20260505002921 | 66 | 356 | 0.9 | 1.7 | 0.00 | 0.00 | 0.00 | 66 | 1004.5 |
| 20260505002417 | 67 | 324 | 0.9 | 2.6 | 0.00 | 0.00 | 0.00 | 65 | 1004.5 |
| 20260505001916 | 68 | 61 | 2.6 | 2.6 | 0.00 | 0.00 | 0.00 | 64 | 1004.7 |
| 20260505001413 | 68 | 146 | 1.7 | 2.6 | 0.00 | 0.00 | 0.00 | 63 | 1004.4 |
| 20260505000910 | 68 | 351 | 0.9 | 1.7 | 0.00 | 0.00 | 0.00 | 62 | 1004.6 |
| 20260505000408 | 69 | 228 | 2.6 | 5.2 | 0.00 | 0.00 | 0.00 | 61 | 1004.3 |
| 20260504235904 | 69 | 107 | 1.7 | 2.6 | 0.00 | 0.00 | 0.00 | 61 | 1004.5 |
| 20260504235402 | 70 | 93 | 1.7 | 4.3 | 0.00 | 0.00 | 0.00 | 59 | 1004.5 |
| 20260504234857 | 70 | 191 | 1.7 | 5.2 | 0.00 | 0.00 | 0.00 | 58 | 1004.6 |
| 20260504234355 | 71 | 257 | 1.7 | 6.1 | 0.00 | 0.00 | 0.00 | 56 | 1004.5 |
| 20260504233852 | 71 | 205 | 4.3 | 7.0 | 0.00 | 0.00 | 0.00 | 56 | 1004.8 |
| 20260504233347 | 70 | 218 | 2.6 | 4.3 | 0.00 | 0.00 | 0.00 | 57 | 1004.7 |
| 20260504232844 | 70 | 269 | 2.6 | 6.1 | 0.00 | 0.00 | 0.00 | 58 | 1004.9 |
| 20260504232342 | 69 | 163 | 3.5 | 6.1 | 0.00 | 0.00 | 0.00 | 59 | 1004.7 |
| 20260504231838 | 70 | 130 | 1.7 | 4.3 | 0.00 | 0.00 | 0.00 | 59 | 1004.7 |
| 20260504231335 | 71 | 168 | 1.7 | 4.3 | 0.00 | 0.00 | 0.00 | 58 | 1004.6 |
| 20260504230831 | 71 | 223 | 2.6 | 4.3 | 0.00 | 0.00 | 0.00 | 57 | 1004.9 |
| 20260504230329 | 71 | 348 | 1.7 | 7.8 | 0.00 | 0.00 | 0.00 | 57 | 1005.0 |
| 20260504225827 | 71 | 148 | 0.9 | 4.3 | 0.00 | 0.00 | 0.00 | 57 | 1005.2 |
| 20260504225323 | 71 | 202 | 2.6 | 6.1 | 0.00 | 0.00 | 0.00 | 56 | 1005.2 |
| 20260504224821 | 70 | 258 | 2.6 | 5.2 | 0.00 | 0.00 | 0.00 | 58 | 1005.3 |
| 20260504224318 | 70 | 294 | 1.7 | 4.3 | 0.00 | 0.00 | 0.00 | 58 | 1005.5 |
| 20260504223814 | 70 | 102 | 1.7 | 5.2 | 0.00 | 0.00 | 0.00 | 58 | 1005.3 |
| 20260504223310 | 69 | 197 | 2.6 | 5.2 | 0.00 | 0.00 | 0.00 | 58 | 1005.3 |
| 20260504222807 | 69 | 344 | 1.7 | 4.3 | 0.00 | 0.00 | 0.00 | 59 | 1005.3 |
| 20260504222305 | 68 | 180 | 1.7 | 2.6 | 0.00 | 0.00 | 0.00 | 60 | 1005.3 |
| 20260504221802 | 69 | 75 | 1.7 | 6.1 | 0.00 | 0.00 | 0.00 | 59 | 1005.3 |
| 20260504221258 | 69 | 310 | 3.5 | 7.0 | 0.00 | 0.00 | 0.00 | 57 | 1005.3 |
| 20260504220755 | 70 | 193 | 2.6 | 13.0 | 0.00 | 0.00 | 0.00 | 57 | 1005.5 |
| 20260504220252 | 70 | 300 | 2.6 | 7.0 | 0.00 | 0.00 | 0.00 | 58 | 1005.3 |
| 20260504215749 | 70 | 257 | 2.6 | 9.6 | 0.00 | 0.00 | 0.00 | 58 | 1005.6 |
| 20260504215246 | 69 | 265 | 1.7 | 7.0 | 0.00 | 0.00 | 0.00 | 59 | 1005.3 |
| 20260504214742 | 70 | 150 | 5.2 | 8.7 | 0.00 | 0.00 | 0.00 | 57 | 1005.6 |
| 20260504214238 | 70 | 333 | 1.7 | 8.7 | 0.00 | 0.00 | 0.00 | 57 | 1005.6 |
| 20260504213735 | 70 | 321 | 2.6 | 8.7 | 0.00 | 0.00 | 0.00 | 56 | 1005.6 |
| 20260504213232 | 70 | 220 | 7.0 | 8.7 | 0.00 | 0.00 | 0.00 | 56 | 1005.3 |
| 20260504212729 | 69 | 188 | 3.5 | 6.1 | 0.00 | 0.00 | 0.00 | 57 | 1005.5 |
| 20260504212225 | 69 | 172 | 1.7 | 4.3 | 0.00 | 0.00 | 0.00 | 59 | 1005.1 |
| 20260504211722 | 68 | 265 | 2.6 | 5.2 | 0.00 | 0.00 | 0.00 | 59 | 1005.0 |
| 20260504211213 | 68 | 230 | 4.3 | 6.1 | 0.00 | 0.00 | 0.00 | 58 | 1004.9 |
| 20260504210711 | 68 | 166 | 4.3 | 6.1 | 0.00 | 0.00 | 0.00 | 59 | 1005.2 |
| 20260504210207 | 68 | 68 | 1.7 | 2.6 | 0.00 | 0.00 | 0.00 | 61 | 1005.2 |
| 20260504205704 | 68 | 187 | 1.7 | 11.3 | 0.00 | 0.00 | 0.00 | 60 | 1005.5 |
| 20260504205201 | 68 | 357 | 3.5 | 9.6 | 0.00 | 0.00 | 0.00 | 59 | 1005.9 |
| 20260504204700 | 69 | 159 | 5.2 | 7.8 | 0.00 | 0.00 | 0.00 | 59 | 1005.8 |
| 20260504204159 | 69 | 2 | 2.6 | 6.1 | 0.00 | 0.00 | 0.00 | 59 | 1006.1 |
| 20260504203657 | 69 | 215 | 3.5 | 6.1 | 0.00 | 0.00 | 0.00 | 57 | 1006.4 |
| 20260504203155 | 70 | 195 | 4.3 | 9.6 | 0.00 | 0.00 | 0.00 | 57 | 1006.1 |
| 20260504202654 | 70 | 180 | 3.5 | 14.8 | 0.00 | 0.00 | 0.00 | 56 | 1006.3 |
| 20260504202152 | 70 | 242 | 6.1 | 13.0 | 0.00 | 0.00 | 0.00 | 55 | 1006.6 |
| 20260504201649 | 71 | 231 | 9.6 | 13.0 | 0.00 | 0.00 | 0.00 | 53 | 1006.4 |
| 20260504201146 | 72 | 274 | 4.3 | 8.7 | 0.00 | 0.00 | 0.00 | 52 | 1006.4 |
| 20260504200643 | 72 | 144 | 9.6 | 14.8 | 0.00 | 0.00 | 0.00 | 51 | 1006.3 |
| 20260504200140 | 73 | 244 | 4.3 | 11.3 | 0.00 | 0.00 | 0.00 | 52 | 1006.1 |
| 20260504195636 | 73 | 231 | 2.6 | 7.8 | 0.00 | 0.00 | 0.00 | 51 | 1006.0 |
| 20260504195132 | 73 | 158 | 4.3 | 7.0 | 0.00 | 0.00 | 0.00 | 51 | 1006.1 |
| 20260504194629 | 72 | 302 | 4.3 | 7.8 | 0.00 | 0.00 | 0.00 | 54 | 1006.3 |
| 20260504194125 | 73 | 340 | 2.6 | 13.9 | 0.00 | 0.00 | 0.00 | 52 | 1006.4 |
| 20260504193621 | 73 | 178 | 3.5 | 9.6 | 0.00 | 0.00 | 0.00 | 52 | 1006.4 |
| 20260504193120 | 72 | 275 | 2.6 | 6.1 | 0.00 | 0.00 | 0.00 | 52 | 1006.1 |
| 20260504192617 | 73 | 266 | 3.5 | 13.9 | 0.00 | 0.00 | 0.00 | 51 | 1006.0 |
| 20260504192115 | 72 | 277 | 4.3 | 9.6 | 0.00 | 0.00 | 0.00 | 53 | 1005.9 |
| 20260504191614 | 71 | 153 | 2.6 | 8.7 | 0.00 | 0.00 | 0.00 | 53 | 1006.1 |
| 20260504191109 | 71 | 23 | 1.7 | 6.1 | 0.00 | 0.00 | 0.00 | 54 | 1006.0 |
| 20260504190606 | 71 | 169 | 4.3 | 9.6 | 0.00 | 0.00 | 0.00 | 53 | 1006.0 |
| 20260504185559 | 71 | 150 | 2.6 | 7.0 | 0.00 | 0.00 | 0.00 | 53 | 1005.9 |
| 20260504185055 | 71 | 222 | 5.2 | 15.6 | 0.00 | 0.00 | 0.00 | 52 | 1006.3 |
| 20260504184551 | 70 | 203 | 2.6 | 12.2 | 0.00 | 0.00 | 0.00 | 53 | 1006.4 |
| 20260504184046 | 70 | 225 | 2.6 | 7.8 | 0.00 | 0.00 | 0.00 | 55 | 1006.5 |
| 20260504183544 | 70 | 155 | 6.1 | 7.0 | 0.00 | 0.00 | 0.00 | 54 | 1006.1 |
| 20260504183042 | 70 | 231 | 3.5 | 7.0 | 0.00 | 0.00 | 0.00 | 55 | 1006.1 |
| 20260504182539 | 69 | 311 | 2.6 | 11.3 | 0.00 | 0.00 | 0.00 | 56 | 1006.4 |
| 20260504182036 | 70 | 248 | 2.6 | 7.8 | 0.00 | 0.00 | 0.00 | 56 | 1006.5 |
| 20260504181533 | 71 | 271 | 2.6 | 7.8 | 0.00 | 0.00 | 0.00 | 56 | 1006.1 |
| 20260504181031 | 70 | 236 | 1.7 | 5.2 | 0.00 | 0.00 | 0.00 | 56 | 1006.1 |
| 20260504180530 | 70 | 210 | 4.3 | 9.6 | 0.00 | 0.00 | 0.00 | 55 | 1006.4 |
| 20260504180028 | 69 | 220 | 6.1 | 11.3 | 0.00 | 0.00 | 0.00 | 54 | 1006.3 |
| 20260504175525 | 70 | 202 | 6.1 | 8.7 | 0.00 | 0.00 | 0.00 | 54 | 1006.4 |
| 20260504175022 | 70 | 279 | 4.3 | 8.7 | 0.00 | 0.00 | 0.00 | 54 | 1006.5 |
| 20260504174520 | 69 | 0 | 0.9 | 9.6 | 0.00 | 0.00 | 0.00 | 57 | 1006.6 |
| 20260504174016 | 70 | 155 | 7.0 | 12.2 | 0.00 | 0.00 | 0.00 | 55 | 1006.6 |
| 20260504173513 | 69 | 77 | 1.7 | 8.7 | 0.00 | 0.00 | 0.00 | 57 | 1006.6 |
| 20260504173011 | 69 | 201 | 6.1 | 8.7 | 0.00 | 0.00 | 0.00 | 56 | 1006.8 |
| 20260504172507 | 68 | 139 | 4.3 | 7.8 | 0.00 | 0.00 | 0.00 | 56 | 1006.6 |
| 20260504172003 | 68 | 186 | 4.3 | 8.7 | 0.00 | 0.00 | 0.00 | 57 | 1006.6 |
| 20260504171500 | 68 | 174 | 8.7 | 11.3 | 0.00 | 0.00 | 0.00 | 57 | 1006.9 |
| 20260504170957 | 68 | 220 | 4.3 | 8.7 | 0.00 | 0.00 | 0.00 | 58 | 1006.7 |
| 20260504170453 | 68 | 2 | 2.6 | 7.0 | 0.00 | 0.00 | 0.00 | 57 | 1006.8 |
| 20260504160413 | 65 | 236 | 7.8 | 11.3 | 0.00 | 0.00 | 0.00 | 59 | 1007.6 |
| 20260504150837 | 64 | 212 | 4.3 | 6.1 | 0.00 | 0.00 | 0.00 | 60 | 1007.9 |
| 20260504150333 | 63 | 193 | 4.3 | 8.7 | 0.00 | 0.00 | 0.00 | 60 | 1008.0 |
| 20260504141304 | 60 | 143 | 6.1 | 9.6 | 0.00 | 0.00 | 0.00 | 60 | 1008.3 |
| 20260504140800 | 60 | 195 | 4.3 | 11.3 | 0.00 | 0.00 | 0.00 | 61 | 1008.3 |
| 20260504140256 | 60 | 220 | 2.6 | 7.8 | 0.00 | 0.00 | 0.00 | 60 | 1008.3 |
| 20260504130725 | 59 | 124 | 3.5 | 7.0 | 0.00 | 0.00 | 0.00 | 59 | 1008.5 |
| 20260504130220 | 58 | 280 | 2.6 | 8.7 | 0.00 | 0.00 | 0.00 | 59 | 1008.5 |